Regional Weather Roundup
Issued by NWS

Home | Current Version | Previous Version | Text Only | Print | Product List | Glossary On
Versions: 1 2 3 4 5 6 7 8 9 10 11 12 13 14 15 16 17 18 19 20 21 22 23 24 25 26 27 28
000
ASUS46 KPQR 240610
RWROR

OREGON REGIONAL WEATHER ROUNDUP
NATIONAL WEATHER SERVICE PORTLAND OR
1100 PM PDT THU MAR 23 2017

NOTE: "FAIR" INDICATES FEW OR NO CLOUDS BELOW 12,000 FEET WITH
NO SIGNIFICANT WEATHER AND/OR OBSTRUCTIONS TO VISIBILITY.

ORZ001>013-240700-
NORTHWEST OREGON


CITY           SKY/WX    TMP DP  RH WIND       PRES   REMARKS
ASTORIA        LGT RAIN  47  42  83 SE9       29.81S
6HR MIN TEMP:  46; 6HR MAX TEMP:  48; 6HR PCP:  0.17;

NEWPORT        LGT RAIN  46  45  93 SE7       29.87F
PORTLAND       LGT RAIN  47  46  97 SE8       29.89F
6HR MIN TEMP:  47; 6HR MAX TEMP:  58; 6HR PCP:  0.24;

VANCOUVER WA   LGT RAIN  48  48 100 S3        29.89F
6HR MIN TEMP:  48; 6HR MAX TEMP:  58; 6HR PCP:  0.29;

SCAPPOOSE      RAIN      47  47 100 S5        29.89F FOG
6HR MIN TEMP:  47; 6HR MAX TEMP:  56; 6HR PCP:  0.42;

HILLSBORO      LGT RAIN  47  46  97 S5        29.87F FOG
6HR MIN TEMP:  47; 6HR MAX TEMP:  55; 6HR PCP:  0.35;

AURORA         LGT RAIN  48  45  89 NE5       29.89F
6HR MIN TEMP:  48; 6HR MAX TEMP:  57; 6HR PCP:  0.24;

MCMINNVILLE    LGT RAIN  48  45  89 E3        29.88F
6HR MIN TEMP:  48; 6HR MAX TEMP:  54; 6HR PCP:  0.15;

SALEM          LGT RAIN  48  45  89 CALM      29.87S
6HR MIN TEMP:  48; 6HR MAX TEMP:  56; 6HR PCP:  0.24;

CORVALLIS        N/A     48  43  81 CALM      29.88F
EUGENE         LGT RAIN  47  47 100 S3        29.88S
6HR MIN TEMP:  47; 6HR MAX TEMP:  56; 6HR PCP:  0.13;

$$

ORZ021-028-240700-
SOUTHWEST OREGON


CITY           SKY/WX    TMP DP  RH WIND       PRES   REMARKS
NORTH BEND     CLOUDY    52  46  82 SE15      29.86R
6HR MIN TEMP:  48; 6HR MAX TEMP:  54; 6HR PCP:  0.06;

BROOKINGS      LGT RAIN  51  45  79 SE14G22   29.93F
ROSEBURG       LGT RAIN  51  44  77 S5        29.89F
6HR MIN TEMP:  49; 6HR MAX TEMP:  57; 6HR PCP:  0.22;

SEXTON SUMMIT  FOG       37  36  96 SE16G32   29.89F VSB 1/2 WCI  28
6HR MIN TEMP:  35; 6HR MAX TEMP:  41; 6HR PCP:  0.04;

MEDFORD        CLOUDY    48  46  93 N3        29.95F
6HR MIN TEMP:  48; 6HR MAX TEMP:  60; 6HR PCP:  0.07;

$$

ORZ014>016-041-240700-
COLUMBIA GORGE


CITY           SKY/WX    TMP DP  RH WIND       PRES   REMARKS
TROUTDALE      LGT RAIN  49  45  86 E14       29.90F
6HR MIN TEMP:  48; 6HR MAX TEMP:  57; 6HR PCP:  0.19;

THE DALLES     LGT RAIN  49  42  77 N12       29.94S
6HR MIN TEMP:  49; 6HR MAX TEMP:  58; 6HR PCP: TRACE;

$$

ORZ029>031-041-044-049-050-061>064-502-503-505>511-240700-
EASTERN OREGON


CITY           SKY/WX    TMP DP  RH WIND       PRES   REMARKS
REDMOND        CLOUDY    46  33  60 SW13      29.92S
6HR MIN TEMP:  46; 6HR MAX TEMP:  58;

BEND           CLOUDY    43  36  75 S12       29.92S
PRINEVILLE     CLOUDY    46  36  66 S14G20    29.92F
KLAMATH FALLS  CLOUDY    40  33  76 S14       30.02F WCI  32
6HR MIN TEMP:  40; 6HR MAX TEMP:  49; 6HR PCP:  0.01;

LAKEVIEW       CLOUDY    37  28  70 S14       30.08F WCI  29
HERMISTON      MOCLDY    46  37  71 NE7       29.87F
6HR MIN TEMP:  46; 6HR MAX TEMP:  59;

PENDLETON      MOCLDY    45  36  70 SE7       29.88F
6HR MIN TEMP:  45; 6HR MAX TEMP:  56;

JOHN DAY       PTCLDY    45  27  49 CALM      29.96S
MEACHAM        MOCLDY    41  24  51 CALM      29.93F
6HR MIN TEMP:  34; 6HR MAX TEMP:  49;

LA GRANDE      MOCLDY    45  27  49 S8        29.96F
6HR MIN TEMP:  39; 6HR MAX TEMP:  54;

BAKER CITY     MOCLDY    43  29  57 SE10      29.99S
6HR MIN TEMP:  38; 6HR MAX TEMP:  53;

BURNS          PTCLDY    42  29  59 S9        30.01R
6HR MIN TEMP:  40; 6HR MAX TEMP:  52;

ROME             N/A     43  30  60 S5        30.02S
6HR MIN TEMP:  42; 6HR MAX TEMP:  57;

ONTARIO        PTCLDY    45  31  58 CALM      30.05S
6HR MIN TEMP:  43; 6HR MAX TEMP:  59;

$$




USA.gov is the U.S. government's official web portal to all federal, state and local government web resources and services.